Track GLOBALSTAR M085 now! 10-day predictions GLOBALSTAR M085 is classified as:
1 37742U 11033D 26247.63338943 -.00000088 00000-0 86778-4 0 9998 2 37742 52.0140 311.4114 0000669 116.0967 47.1667 12.62264986699824